Regional Weather Roundup
Issued by NWS

Home | Current Version | Previous Version | Text Only | Print | Product List | Glossary Off
Versions: 1 2 3 4 5 6 7 8 9 10 11 12 13 14 15 16 17 18 19 20 21 22 23 24 25 26 27 28 29 30 31 32 33 34 35 36 37 38 39 40 41 42 43 44 45 46 47 48 49 50

000
ASUS43 KOAX 300410
RWRNE

WEATHER ROUNDUP FOR NEBRASKA
NATIONAL WEATHER SERVICE OMAHA NE
1000 PM CST THU JAN 29 2015

NOTES: SATELLITE DATA IS BEING USED TO AUGMENT CLOUD COVER ABOVE
       12000 FEET.
       "FAIR" INDICATES FEW OR NO CLOUDS BELOW 12,000 FEET WITH NO
       SIGNIFICANT WEATHER AND/OR OBSTRUCTIONS TO VISIBILITY.

  * THESE STATIONS DO NOT REPORT WEATHER SUCH AS RAIN...SNOW OR FOG.

NEZ001>004-019>022-054>056-300500-
NEBRASKA PANHANDLE

CITY           SKY/WX    TMP DP  RH WIND       PRES   REMARKS
SCOTTSBLUFF    PTCLDY    29  22  75 E7        30.38F WCI  22
ALLIANCE       CLEAR     26  17  68 S10       30.38F WCI  16
CHADRON        CLEAR     32  18  56 SW9       30.37F WCI  24
KIMBALL        MOCLDY    29  18  62 S7        30.37F WCI  22
SIDNEY         PTCLDY    26  18  71 S6        30.41S WCI  19
$$

NEZ057>060-069>072-079>082-300500-
SOUTHWEST NEBRASKA

CITY           SKY/WX    TMP DP  RH WIND       PRES   REMARKS
NORTH PLATTE   PTCLDY    19  14  81 NE3       30.46S
IMPERIAL       PTCLDY    27  17  66 CALM      30.45F
LEXINGTON      PTCLDY    22  18  84 W3        30.48S
MCCOOK         PTCLDY    24  17  74 SW5       30.48S WCI  18
OGALLALA       CLEAR     19  16  87 CALM      30.44F
$$

NEZ005>010-023>029-035>040-094-300500-
NORTH CENTRAL NEBRASKA

CITY           SKY/WX    TMP DP  RH WIND       PRES   REMARKS
VALENTINE      CLEAR     24  18  77 CALM      30.45S
AINSWORTH      CLEAR     24  19  80 S5        30.45F WCI  18
BROKEN BOW     CLEAR     20  15  81 CALM      30.47S
O`NEILL        CLEAR     23  21  93 E3        30.50S
ORD            CLEAR     21  16  81 CALM      30.48R
THEDFORD       CLEAR     25  18  76 CALM      30.45F
$$

NEZ041-046>049-061>064-073>077-083>087-300500-
SOUTH CENTRAL NEBRASKA

CITY           SKY/WX    TMP DP  RH WIND       PRES   REMARKS
GRAND ISLAND   CLEAR     24  18  77 CALM      30.51S
AURORA         CLEAR     28  22  76 NE3       30.50S
HASTINGS       PTCLDY    24  15  68 CALM      30.48F
HEBRON         FAIR      23  17  78 CALM      30.52R
HOLDREGE       PTCLDY    23  15  73 CALM      30.48S
KEARNEY *      PTCLDY    25  16  68 NW5       30.49S WCI  19
YORK           CLEAR     23  19  86 CALM      30.52R
$$

NEZ011>018-030>034-042>045-300500-
NORTHEAST NEBRASKA

CITY           SKY/WX    TMP DP  RH WIND       PRES   REMARKS
NORFOLK        CLEAR     25  20  81 N3        30.51S
ALBION         PTCLDY    20  16  85 CALM      30.51R
BLAIR          CLEAR     28  22  77 N9        30.52S WCI  19
COLUMBUS *     CLEAR     23  16  74 NE5       30.53S WCI  17
FREMONT        CLEAR     27  22  81 CALM      30.54S
TEKAMAH        PTCLDY    30  21  69 N9        30.55R WCI  22
WAYNE          CLEAR     20  18  91 CALM      30.53S
$$

NEZ050>053-065>068-078-088>093-300500-
SOUTHEAST NEBRASKA

CITY           SKY/WX    TMP DP  RH WIND       PRES   REMARKS
LINCOLN        CLEAR     27  21  78 N5        30.55R WCI  22
OMAHA EPPLEY   CLEAR     29  22  75 N12       30.54R WCI  19
BEATRICE       CLEAR     22  18  85 NE5       30.52S WCI  16
FALLS CITY     CLEAR     25  19  78 NW3       30.53R
NEBRASKA CITY  CLEAR     26  20  77 N5        30.53R WCI  20
PLATTSMOUTH    CLEAR     27  21  79 N3        30.53R
$$

NEZ044-045-051>053-067-300500-
OMAHA AREA

CITY           SKY/WX    TMP DP  RH WIND       PRES   REMARKS
OMAHA EPPLEY   CLEAR     29  22  75 N12       30.54R WCI  19
BLAIR          CLEAR     28  22  77 N9        30.52S WCI  19
FREMONT        CLEAR     27  22  81 CALM      30.54S
MILLARD        CLEAR     30  22  73 N3        30.54S
OFFUTT AFB     CLEAR     30  22  73 N12       30.54R WCI  20
PLATTSMOUTH    CLEAR     27  21  79 N3        30.53R
WAHOO          FAIR      22  17  83 N7        30.53S WCI  13
$$


USA.gov is the U.S. government's official web portal to all federal, state and local government web resources and services.